D1900 Weather Reports


Display with metric or nautical units.
time (UTC)temp
F
wind
direction
speed
MPH
gust
MPH
rain 1hr
in
rain 24hr
in
rain mn
in
humidity
%
barometer
mb
20260506194457 59 185 3.0 5.0 0.03 0.21 0.21 95 995.8
20260506194228 59 171 3.0 5.0 0.03 0.21 0.21 94 995.8
20260506193457 59 188 3.0 5.0 0.04 0.21 0.21 94 995.9
20260506193228 59 142 3.0 4.0 0.06 0.21 0.21 94 996.0
20260506192458 59 142 3.0 4.0 0.06 0.20 0.20 94 996.0
20260506191956 59 291 2.0 4.0 0.05 0.20 0.20 94 996.0
20260506191458 59 153 2.0 4.0 0.06 0.20 0.20 94 996.2
20260506190926 59 155 2.0 4.0 0.07 0.20 0.20 94 996.1
20260506190428 59 169 2.0 4.0 0.07 0.20 0.20 94 996.0
20260506185927 59 181 2.0 4.0 0.07 0.20 0.20 94 996.1
20260506185658 59 178 2.0 4.0 0.07 0.19 0.19 94 996.3
20260506185538 59 187 3.0 5.0 0.07 0.18 0.18 94 996.4
20260506184428 59 175 3.0 5.0 0.08 0.18 0.18 94 996.4
20260506184150 59 209 2.0 4.0 0.07 0.17 0.17 94 996.4
20260506183652 59 146 3.0 5.0 0.07 0.16 0.16 94 996.5
20260506183150 60 188 2.0 5.0 0.07 0.15 0.15 94 996.4
20260506182420 60 200 2.0 4.0 0.07 0.15 0.15 94 996.2
20260506181919 60 138 2.0 4.0 0.09 0.15 0.15 94 996.2
20260506181421 60 164 2.0 4.0 0.09 0.14 0.14 94 996.2
20260506180915 60 146 1.0 4.0 0.10 0.13 0.13 94 996.2
20260506180418 60 185 1.0 3.0 0.10 0.13 0.13 94 996.3
20260506175923 60 202 2.0 4.0 0.11 0.11 0.11 93 996.8
20260506175916 60 171 1.0 4.0 0.11 0.12 0.12 93 996.5
20260506175521 60 0 2.0 4.0 0.11 0.12 0.12 93 996.6
20260506174418 60 176 2.0 4.0 0.10 0.10 0.10 93 996.9
20260506174143 60 144 2.0 3.0 0.09 0.09 0.09 93 997.0
20260506173417 60 169 2.0 3.0 0.09 0.09 0.09 93 997.2
20260506172912 60 184 2.0 4.0 0.08 0.08 0.08 92 997.3
20260506172413 60 194 2.0 4.0 0.07 0.07 0.07 92 997.3
20260506171911 60 201 2.0 4.0 0.06 0.06 0.06 91 997.4
20260506171408 61 229 2.0 5.0 0.04 0.04 0.04 90 997.6
20260506171139 62 192 2.0 5.0 0.03 0.03 0.03 89 997.5
20260506170409 62 207 3.0 6.0 0.02 0.02 0.02 87 997.6
20260506165907 63 209 3.0 6.0 0.02 0.02 0.02 85 997.7
20260506165409 64 159 3.0 7.0 0.01 0.01 0.01 81 997.7
20260506164908 65 145 3.0 7.0 0.00 0.00 0.00 78 997.6
20260506164409 65 190 4.0 9.0 0.00 0.00 0.00 76 997.6
20260506163908 66 112 4.0 9.0 0.00 0.00 0.00 76 997.5
20260506163642 66 202 4.0 7.0 0.00 0.00 0.00 75 997.4
20260506162908 66 183 4.0 8.0 0.00 0.00 0.00 75 997.3
20260506162409 66 196 4.0 8.0 0.00 0.00 0.00 74 997.3
20260506162139 66 190 4.0 9.0 0.00 0.00 0.00 74 997.3
20260506161410 66 180 4.0 9.0 0.00 0.00 0.00 74 997.4
20260506160906 66 116 4.0 7.0 0.00 0.00 0.00 73 997.5
20260506160639 67 182 4.0 6.0 0.00 0.00 0.00 74 997.6
20260506155906 67 159 3.0 6.0 0.00 0.00 0.00 73 997.7
20260506155407 67 188 3.0 6.0 0.00 0.00 0.00 73 997.9
20260506155257 67 176 4.0 7.0 0.00 0.00 0.00 72 997.8
20260506155143 67 174 3.0 7.0 0.00 0.00 0.00 73 997.8
20260506153906 67 184 3.0 7.0 0.00 0.00 0.00 73 997.8
20260506153638 67 180 3.0 5.0 0.00 0.00 0.00 72 997.8
20260506152906 67 194 3.0 5.0 0.00 0.00 0.00 73 997.8
20260506152408 67 209 3.0 5.0 0.00 0.00 0.00 73 997.8
20260506151907 67 132 3.0 6.0 0.00 0.00 0.00 73 997.8
20260506151640 67 182 4.0 7.0 0.00 0.00 0.00 73 997.8
20260506150905 67 205 4.0 7.0 0.00 0.00 0.00 73 997.9
20260506150406 66 204 3.0 6.0 0.00 0.00 0.00 73 997.9
20260506145905 66 184 2.0 5.0 0.00 0.00 0.00 75 998.0
20260506145407 66 182 2.0 5.0 0.00 0.00 0.00 75 998.0
20260506144905 66 197 3.0 5.0 0.00 0.00 0.00 75 998.1
20260506144406 66 195 3.0 8.0 0.00 0.00 0.00 75 998.3
20260506144135 66 176 3.0 8.0 0.00 0.00 0.00 75 998.2
20260506143406 66 152 3.0 8.0 0.00 0.00 0.00 75 998.2
20260506142905 65 184 3.0 6.0 0.00 0.00 0.00 75 998.3
20260506142406 65 194 3.0 6.0 0.00 0.00 0.00 76 998.2
20260506141906 65 119 2.0 6.0 0.00 0.00 0.00 76 998.2
20260506141407 65 203 2.0 6.0 0.00 0.00 0.00 77 998.3
20260506141132 65 222 3.0 6.0 0.00 0.00 0.00 77 998.3
20260506140633 65 176 3.0 6.0 0.00 0.00 0.00 77 998.3
20260506135901 65 183 3.0 8.0 0.00 0.00 0.00 77 998.3
20260506135403 65 157 3.0 8.0 0.00 0.00 0.00 77 998.1
20260506134901 65 179 2.0 5.0 0.00 0.00 0.00 78 998.2
20260506134403 64 149 2.0 5.0 0.00 0.00 0.00 78 998.0
20260506134132 64 167 3.0 7.0 0.00 0.00 0.00 78 998.0
20260506133403 64 191 3.0 8.0 0.00 0.00 0.00 78 998.0
20260506132902 64 190 3.0 8.0 0.00 0.00 0.00 79 998.0
20260506132403 64 192 2.0 4.0 0.00 0.00 0.00 79 998.2
20260506131902 64 214 3.0 8.0 0.00 0.00 0.00 80 998.2
20260506131402 63 164 3.0 8.0 0.00 0.00 0.00 80 998.1
20260506130857 63 192 3.0 6.0 0.00 0.00 0.00 81 998.3
20260506130358 63 180 3.0 7.0 0.00 0.00 0.00 81 998.2
20260506125857 62 201 3.0 8.0 0.00 0.00 0.00 81 998.3
20260506125359 62 225 3.0 8.0 0.00 0.00 0.00 82 998.4
20260506124857 62 160 3.0 6.0 0.00 0.00 0.00 82 998.6
20260506124358 62 193 3.0 7.0 0.00 0.00 0.00 82 998.7
20260506123857 63 209 3.0 7.0 0.00 0.00 0.00 82 998.7
20260506123358 63 179 3.0 8.0 0.00 0.00 0.00 81 998.7
20260506122857 63 205 3.0 8.0 0.00 0.00 0.00 81 998.7
20260506122629 62 200 4.0 8.0 0.00 0.00 0.00 82 998.7
20260506121857 62 196 4.0 8.0 0.00 0.00 0.00 82 998.6
20260506121629 62 203 3.0 6.0 0.00 0.00 0.00 82 998.5
20260506121128 62 169 3.0 6.0 0.00 0.00 0.00 82 998.5
20260506120356 62 177 3.0 6.0 0.00 0.00 0.00 83 998.6
20260506115852 61 195 3.0 6.0 0.00 0.00 0.00 83 998.4
20260506115353 61 174 3.0 5.0 0.00 0.00 0.00 83 998.5
20260506114852 61 193 2.0 6.0 0.00 0.00 0.00 84 998.7
20260506114354 61 224 3.0 6.0 0.00 0.00 0.00 84 998.6
20260506113851 61 189 3.0 6.0 0.00 0.00 0.00 84 998.5
20260506113626 61 185 3.0 6.0 0.00 0.00 0.00 84 998.4
20260506112852 61 157 3.0 6.0 0.00 0.00 0.00 84 998.4
20260506112624 61 153 3.0 6.0 0.00 0.00 0.00 84 998.4
20260506111852 60 207 3.0 6.0 0.00 0.00 0.00 84 998.6
20260506111353 60 202 3.0 5.0 0.00 0.00 0.00 85 998.9
20260506110851 60 169 3.0 5.0 0.00 0.00 0.00 85 998.8
20260506110352 60 262 3.0 5.0 0.00 0.00 0.00 86 998.7
20260506105851 60 171 3.0 7.0 0.00 0.00 0.00 86 998.7
20260506105352 60 217 3.0 7.0 0.00 0.00 0.00 85 998.7
20260506104851 60 194 3.0 6.0 0.00 0.00 0.00 85 998.8
20260506104743 60 155 3.0 6.0 0.00 0.00 0.00 85 998.6
20260506104630 60 203 3.0 6.0 0.00 0.00 0.00 85 998.8
20260506103350 60 146 3.0 6.0 0.00 0.00 0.00 85 998.4
20260506103123 60 170 3.0 6.0 0.00 0.00 0.00 85 998.5
20260506102352 60 146 3.0 6.0 0.00 0.00 0.00 85 998.5
20260506101851 60 160 3.0 6.0 0.00 0.00 0.00 85 998.4
20260506101349 60 156 3.0 5.0 0.00 0.00 0.00 85 998.4
20260506100848 60 274 3.0 5.0 0.00 0.00 0.00 85 998.4
20260506100621 60 163 2.0 5.0 0.00 0.00 0.00 85 998.4
20260506095628 60 200 3.0 6.0 0.00 0.00 0.00 85 998.4
20260506095128 60 93 3.0 6.0 0.00 0.00 0.00 85 998.4
20260506094627 60 161 3.0 6.0 0.00 0.00 0.00 85 998.4
20260506094359 60 181 4.0 7.0 0.00 0.00 0.00 85 998.4
20260506093628 60 182 4.0 7.0 0.00 0.00 0.00 85 998.4
20260506093128 60 182 3.0 7.0 0.00 0.00 0.00 85 998.3
20260506092628 60 133 3.0 5.0 0.00 0.00 0.00 85 998.5
20260506092128 60 103 3.0 6.0 0.00 0.00 0.00 85 998.4
20260506091627 60 176 3.0 6.0 0.00 0.00 0.00 85 998.4
20260506091125 60 180 3.0 5.0 0.00 0.00 0.00 84 998.4
20260506090622 60 178 3.0 5.0 0.00 0.00 0.00 84 998.4
20260506090121 60 229 3.0 5.0 0.00 0.00 0.00 84 998.4
20260506085620 60 175 3.0 5.0 0.00 0.00 0.00 84 998.3
20260506085350 60 179 3.0 5.0 0.00 0.00 0.00 84 998.4
20260506084620 60 172 2.0 5.0 0.00 0.00 0.00 83 998.6
20260506084120 60 147 2.0 5.0 0.00 0.00 0.00 83 998.6
20260506083620 60 148 3.0 5.0 0.00 0.00 0.00 83 998.6
20260506083120 60 187 3.0 5.0 0.00 0.00 0.00 83 998.6
20260506082620 60 197 3.0 5.0 0.00 0.00 0.00 83 998.6
20260506082351 60 176 3.0 5.0 0.00 0.00 0.00 83 998.5
20260506081620 60 153 3.0 5.0 0.00 0.00 0.00 83 998.4
20260506081347 60 179 3.0 5.0 0.00 0.00 0.00 83 998.5
20260506080616 60 175 3.0 5.0 0.00 0.00 0.00 83 998.6
20260506080116 60 181 3.0 5.0 0.00 0.00 0.00 82 998.6
20260506073348 60 169 3.0 5.0 0.00 0.00 0.00 82 998.6
20260506072624 60 184 3.0 6.0 0.00 0.00 0.00 81 998.7
20260506072617 60 184 3.0 5.0 0.00 0.00 0.00 82 998.7
20260506071617 60 155 3.0 6.0 0.00 0.00 0.00 81 998.7
20260506071116 60 188 3.0 6.0 0.00 0.00 0.00 81 998.7
20260506070615 60 180 3.0 6.0 0.00 0.00 0.00 81 998.7
20260506070116 60 191 3.0 6.0 0.00 0.00 0.00 81 998.7
20260506062112 61 198 3.0 6.0 0.00 0.00 0.00 80 998.5
20260506061610 61 166 3.0 6.0 0.00 0.00 0.00 80 998.5
20260506061107 61 189 3.0 6.0 0.00 0.00 0.00 80 998.6
20260506060606 61 200 3.0 6.0 0.00 0.00 0.00 80 998.5
20260506060337 61 200 3.0 6.0 0.00 0.00 0.00 79 998.6
20260506051101 62 212 3.0 6.0 0.00 0.00 0.00 77 998.8
20260506050602 62 193 3.0 6.0 0.00 0.00 0.00 77 998.8
20260506045059 63 127 3.0 6.0 0.00 0.00 0.00 76 999.0
20260506044600 63 209 3.0 7.0 0.00 0.00 0.00 76 999.0
20260506044331 63 172 3.0 7.0 0.00 0.00 0.00 75 998.9
20260506043559 63 118 3.0 7.0 0.00 0.00 0.00 75 998.9
20260506043331 63 166 3.0 7.0 0.00 0.00 0.00 74 998.9
20260506042600 63 190 3.0 7.0 0.00 0.00 0.00 74 999.0
20260506042100 63 194 3.0 6.0 0.00 0.00 0.00 74 999.0
20260506041601 63 197 3.0 6.0 0.00 0.00 0.00 73 999.0
20260506041056 63 189 3.0 6.0 0.00 0.00 0.00 73 999.0
20260506040557 63 179 4.0 5.0 0.00 0.00 0.00 72 999.0
20260506035849 64 215 3.0 6.0 0.00 0.00 0.00 71 999.0
20260506035118 64 129 3.0 7.0 0.00 0.00 0.00 71 999.0
20260506034848 64 209 3.0 7.0 0.00 0.00 0.00 70 999.0
20260506034118 64 234 3.0 8.0 0.00 0.00 0.00 70 999.1
20260506033618 64 126 3.0 8.0 0.00 0.00 0.00 69 999.1
20260506033349 64 194 3.0 6.0 0.00 0.00 0.00 69 999.1
20260506032618 64 183 3.0 5.0 0.00 0.00 0.00 69 999.1
20260506032118 64 179 3.0 6.0 0.00 0.00 0.00 69 999.1
20260506031616 64 228 3.0 6.0 0.00 0.00 0.00 68 999.0
20260506031117 64 174 3.0 8.0 0.00 0.00 0.00 68 998.9
20260506030617 64 229 4.0 8.0 0.00 0.00 0.00 68 999.0
20260506030117 64 120 3.0 8.0 0.00 0.00 0.00 68 998.9
20260506025848 64 188 3.0 7.0 0.00 0.00 0.00 68 998.9
20260506025117 64 176 3.0 9.0 0.00 0.00 0.00 68 998.8
20260506024617 64 180 3.0 9.0 0.00 0.00 0.00 68 998.8
20260506024118 64 136 3.0 6.0 0.00 0.00 0.00 68 998.8
20260506023849 64 176 3.0 6.0 0.00 0.00 0.00 69 998.9
20260506023117 64 176 2.0 6.0 0.00 0.00 0.00 69 998.8
20260506022617 64 189 2.0 6.0 0.00 0.00 0.00 69 998.8
20260506022113 64 165 2.0 6.0 0.00 0.00 0.00 68 998.9
20260506021614 64 184 3.0 7.0 0.00 0.00 0.00 69 998.9
20260506021111 64 139 3.0 7.0 0.00 0.00 0.00 68 998.9
20260506020612 64 188 2.0 6.0 0.00 0.00 0.00 68 998.9
20260506020343 64 215 2.0 4.0 0.00 0.00 0.00 68 998.9
20260506015612 64 181 2.0 7.0 0.00 0.00 0.00 68 998.9
20260506015112 64 173 2.0 7.0 0.00 0.00 0.00 68 998.9
20260506014612 64 189 3.0 8.0 0.00 0.00 0.00 68 998.9
20260506014112 64 162 3.0 9.0 0.00 0.00 0.00 67 998.8
20260506013613 64 191 3.0 9.0 0.00 0.00 0.00 67 998.8
20260506013343 64 196 3.0 5.0 0.00 0.00 0.00 67 998.7
20260506012613 64 138 3.0 5.0 0.00 0.00 0.00 66 998.6
20260506012108 64 224 3.0 6.0 0.00 0.00 0.00 66 998.5
20260506011606 64 175 3.0 8.0 0.00 0.00 0.00 66 998.5
20260506011102 64 143 3.0 8.0 0.00 0.00 0.00 65 998.4
20260506010603 65 183 3.0 5.0 0.00 0.00 0.00 65 998.3
20260506005603 65 194 3.0 7.0 0.00 0.00 0.00 64 998.2
20260506005103 65 197 3.0 6.0 0.00 0.00 0.00 63 998.2
20260506004834 65 176 3.0 6.0 0.00 0.00 0.00 63 998.2
20260506004103 66 215 3.0 6.0 0.00 0.00 0.00 63 998.1
20260506003603 66 197 3.0 7.0 0.00 0.00 0.00 63 998.1
20260506003103 66 193 3.0 7.0 0.00 0.00 0.00 62 997.9
20260506002603 66 99 3.0 7.0 0.00 0.00 0.00 63 997.8
20260506002101 66 161 3.0 6.0 0.00 0.00 0.00 62 997.8
20260506001602 66 191 3.0 6.0 0.00 0.00 0.00 63 997.8
20260506001102 66 104 4.0 7.0 0.00 0.00 0.00 62 997.6
20260506000601 67 146 4.0 7.0 0.00 0.00 0.00 62 997.5
20260505235601 67 174 4.0 7.0 0.00 0.00 0.00 62 997.4
20260505235101 67 138 4.0 9.0 0.00 0.00 0.00 61 997.4
20260505234602 68 191 4.0 9.0 0.00 0.00 0.00 61 997.3
20260505234102 68 168 4.0 8.0 0.00 0.00 0.00 60 997.2
20260505233603 68 140 4.0 8.0 0.00 0.00 0.00 60 997.2
20260505233102 68 196 3.0 8.0 0.00 0.00 0.00 59 997.0
20260505232602 69 188 4.0 8.0 0.00 0.00 0.00 59 996.9
20260505232058 69 153 4.0 8.0 0.00 0.00 0.00 58 996.8
20260505231559 70 127 5.0 11.0 0.00 0.00 0.00 57 996.7
20260505231059 70 188 5.0 11.0 0.00 0.00 0.00 57 996.7
20260505230558 70 178 4.0 8.0 0.00 0.00 0.00 56 996.6
20260505230057 70 195 4.0 10.0 0.00 0.00 0.00 56 996.5
20260505225556 71 192 5.0 10.0 0.00 0.00 0.00 55 996.5
20260505225057 71 194 5.0 9.0 0.00 0.00 0.00 56 996.6
20260505224557 71 207 4.0 8.0 0.00 0.00 0.00 55 996.5
20260505224057 71 198 5.0 9.0 0.00 0.00 0.00 55 996.5
20260505223558 71 196 5.0 11.0 0.00 0.00 0.00 55 996.3
20260505223057 71 184 6.0 11.0 0.00 0.00 0.00 54 996.2
20260505222558 72 185 5.0 9.0 0.00 0.00 0.00 53 996.1
20260505222058 72 178 5.0 9.0 0.00 0.00 0.00 52 996.1
20260505221553 73 185 5.0 9.0 0.00 0.00 0.00 52 996.0
20260505221053 73 151 4.0 9.0 0.00 0.00 0.00 52 995.9
20260505220554 73 184 4.0 9.0 0.00 0.00 0.00 52 996.0
20260505220054 73 164 4.0 8.0 0.00 0.00 0.00 52 996.1
20260505215554 74 196 4.0 7.0 0.00 0.00 0.00 51 996.2
20260505215326 74 183 3.0 8.0 0.00 0.00 0.00 51 996.2
20260505214553 74 181 3.0 8.0 0.00 0.00 0.00 51 996.2
20260505214054 74 193 4.0 7.0 0.00 0.00 0.00 51 996.2
20260505213555 74 148 4.0 9.0 0.00 0.00 0.00 51 996.1
20260505213054 74 198 4.0 9.0 0.00 0.00 0.00 51 996.0
20260505212554 74 162 4.0 9.0 0.00 0.00 0.00 50 995.9
20260505212053 74 219 3.0 6.0 0.00 0.00 0.00 50 996.1
20260505211548 74 171 3.0 6.0 0.00 0.00 0.00 50 996.1
20260505211048 75 159 3.0 6.0 0.00 0.00 0.00 50 996.1
20260505210819 75 178 3.0 6.0 0.00 0.00 0.00 51 996.0
20260505210048 75 186 4.0 7.0 0.00 0.00 0.00 51 996.1
20260505205548 75 200 4.0 7.0 0.00 0.00 0.00 50 995.9
20260505205049 76 144 4.0 7.0 0.00 0.00 0.00 50 995.9
20260505204549 76 241 4.0 7.0 0.00 0.00 0.00 49 996.0
20260505204049 76 181 4.0 7.0 0.00 0.00 0.00 49 996.0
20260505203549 76 165 4.0 8.0 0.00 0.00 0.00 48 995.9
20260505203050 76 214 4.0 9.0 0.00 0.00 0.00 49 996.0
20260505202550 76 206 4.0 9.0 0.00 0.00 0.00 49 996.1
20260505202047 76 209 4.0 9.0 0.00 0.00 0.00 48 996.1
20260505201554 76 189 4.0 8.0 0.00 0.00 0.00 50 996.1
20260505201547 76 193 4.0 8.0 0.00 0.00 0.00 50 996.1
20260505200547 76 191 4.0 10.0 0.00 0.00 0.00 49 996.1
20260505200048 77 278 4.0 10.0 0.00 0.00 0.00 49 996.1
20260505195548 77 191 4.0 13.0 0.00 0.00 0.00 49 996.2
20260505195048 77 220 5.0 13.0 0.00 0.00 0.00 48 995.9
20260505194548 77 198 4.0 8.0 0.00 0.00 0.00 48 996.0